Location: Unspecified
(33.6682°S, 0.0000°E)
Time: 07:31:37
(UTC+00:00)

S-56A Canister/Altair - Pass Details

Date: 30 June 2019
Orbit: 632 x 2500 km, 38.9° (Epoch: 21 July)

Event Time Altitude Azimuth Distance (km) Brightness Sun altitude
Exits shadow 06:36:47 - 249° (WSW) 3,997 10.5 -6.2°
Reaches altitude 10° 06:37:35 10° 250° (WSW) 3,770 10.4 -6.0°
Maximum altitude 06:47:56 77° 333° (NNW) 2,089 9.7 -4.1°
Drops below altitude 10° 07:02:25 10° 56° (NE) 5,094 13.8 -1.4°
Sets 07:06:35 0° 57° (ENE) 6,162 15.2 -0.6°
